TimeEDT,TemperatureF,Dew PointF,Humidity,Sea Level PressureIn,VisibilityMPH,Wind Direction,Wind SpeedMPH,Gust SpeedMPH,PrecipitationIn,Events,Conditions,WindDirDegrees,DateUTC
12:51 AM,54.0,53.1,97,30.13,7.0,Calm,Calm,-,N/A,,Clear,0,2012-04-30 04:51:00
1:41 AM,51.8,51.8,100,30.12,1.5,NE,3.5,-,N/A,,Partly Cloudy,40,2012-04-30 05:41:00
1:49 AM,51.8,51.8,100,30.12,0.8,Calm,Calm,-,N/A,,Mist,0,2012-04-30 05:49:00
1:51 AM,52.0,51.1,97,30.12,1.0,Calm,Calm,-,N/A,,Mist,0,2012-04-30 05:51:00
2:01 AM,53.6,51.8,94,30.12,2.0,Calm,Calm,-,N/A,,Partly Cloudy,0,2012-04-30 06:01:00
2:09 AM,53.6,51.8,94,30.12,7.0,Calm,Calm,-,N/A,,Clear,0,2012-04-30 06:09:00
2:51 AM,53.1,51.1,93,30.10,7.0,Calm,Calm,-,N/A,,Clear,0,2012-04-30 06:51:00
3:51 AM,53.6,51.8,94,30.10,5.0,Calm,Calm,-,N/A,,Partly Cloudy,0,2012-04-30 07:51:00
4:51 AM,52.0,51.1,97,30.10,4.0,Calm,Calm,-,N/A,,Mostly Cloudy,0,2012-04-30 08:51:00
5:51 AM,52.0,51.1,97,30.09,8.0,Calm,Calm,-,N/A,,Mostly Cloudy,0,2012-04-30 09:51:00
6:51 AM,53.1,51.1,93,30.10,7.0,Calm,Calm,-,N/A,,Partly Cloudy,0,2012-04-30 10:51:00
7:51 AM,55.0,53.1,93,30.11,8.0,Calm,Calm,-,N/A,,Clear,0,2012-04-30 11:51:00
8:51 AM,60.1,55.9,86,30.11,10.0,SSW,4.6,-,N/A,,Clear,210,2012-04-30 12:51:00
9:51 AM,66.9,59.0,76,30.10,10.0,SSW,8.1,-,N/A,,Clear,200,2012-04-30 13:51:00
10:51 AM,73.0,62.1,68,30.09,10.0,SSW,4.6,-,N/A,,Clear,210,2012-04-30 14:51:00
11:51 AM,78.1,62.1,58,30.06,10.0,SSW,6.9,-,N/A,,Clear,200,2012-04-30 15:51:00
12:51 PM,80.1,61.0,52,30.04,10.0,WSW,8.1,-,N/A,,Scattered Clouds,240,2012-04-30 16:51:00
1:51 PM,81.0,60.1,49,30.02,10.0,SW,5.8,-,N/A,,Scattered Clouds,220,2012-04-30 17:51:00
2:51 PM,82.0,57.9,44,30.00,10.0,SW,12.7,-,N/A,,Scattered Clouds,220,2012-04-30 18:51:00
3:51 PM,84.9,57.9,40,29.97,10.0,WSW,10.4,16.1,N/A,,Scattered Clouds,240,2012-04-30 19:51:00
4:51 PM,82.0,55.9,41,29.96,10.0,SSW,9.2,17.3,N/A,,Partly Cloudy,210,2012-04-30 20:51:00
5:51 PM,82.9,55.9,39,29.95,10.0,SW,9.2,19.6,N/A,,Partly Cloudy,230,2012-04-30 21:51:00
6:51 PM,81.0,55.9,42,29.94,10.0,SW,8.1,19.6,N/A,,Partly Cloudy,230,2012-04-30 22:51:00
7:51 PM,79.0,55.9,45,29.95,10.0,SW,6.9,-,N/A,,Partly Cloudy,220,2012-04-30 23:51:00
8:51 PM,75.9,55.9,50,29.94,10.0,SSW,4.6,-,N/A,,Partly Cloudy,210,2012-05-01 00:51:00
9:51 PM,75.9,55.9,50,29.96,10.0,SW,3.5,-,N/A,,Scattered Clouds,220,2012-05-01 01:51:00
10:51 PM,73.0,57.9,59,29.95,10.0,SW,8.1,-,0.00,Rain-Thunderstorm,Light Rain,220,2012-05-01 02:51:00
11:03 PM,71.6,59.0,64,29.99,10.0,SW,11.5,20.7,0.00,Rain-Thunderstorm,Light Rain,230,2012-05-01 03:03:00
11:36 PM,66.2,60.8,83,29.99,10.0,SW,4.6,-,0.03,,Mostly Cloudy,230,2012-05-01 03:36:00
11:51 PM,66.0,60.1,81,29.99,10.0,West,6.9,-,0.03,,Overcast,270,2012-05-01 03:51:00